Location: Lango�lan
(48.1202°N, 3.2340°W)
Time: 05:40:25
(UTC+00:00)

Meteor 1-31 Rocket - Pass Details

Date: 23 October 2019
Orbit: 520 x 548 km, 97.6° (Epoch: 12 November)

Event Time Altitude Azimuth Distance (km) Brightness Sun altitude
Rises 06:08:42 0° 358° (N) 2,665 6.2 -6.5°
Reaches altitude 10° 06:11:24 10° 337° (NNW) 1,768 5.1 -6.1°
Maximum altitude 06:13:49 16° 298° (WNW) 1,406 4.3 -5.7°
Drops below altitude 10° 06:16:13 10° 258° (WSW) 1,758 4.8 -5.3°
Sets 06:18:54 0° 237° (WSW) 2,641 5.9 -4.9°
